Wind_Speed
22 24 24 24 25 23 24 24 22 20 18 17 16 15 14 12 12 10 10 9 10 9 8 8 8 7 6 5 4 3 3 2 2 2 3 4 4 4 4 5 5 5 6 6 5 6 5 5 5
22 23 24 26 26 25 25 25 22 20 19 18 16 16 14 13 11 10 10 9 9 9 8 8 7 7 6 5 4 3 2 2 2 1 1 2 3 4 4 4 5 5 5 6 5 5 5 5 5
21 23 25 26 25 25 26 25 23 22 21 19 17 17 15 13 12 11 10 10 9 9 8 8 8 6 5 5 4 3 2 1 2 2 1 2 2 3 3 4 5 5 5 5 5 5 5 5 5
20 22 24 25 24 25 26 25 23 22 21 20 19 17 15 13 12 12 11 11 9 8 7 6 6 6 5 4 4 3 2 1 1 2 2 2 3 3 2 3 4 4 4 4 5 5 5 5 5
18 20 22 23 23 24 25 25 23 22 21 21 20 18 16 15 13 12 12 11 9 8 7 6 6 5 4 3 3 2 2 1 1 1 2 2 3 3 3 3 3 3 3 4 4 5 5 5 4
16 19 20 21 22 23 24 24 22 22 22 21 21 20 18 17 14 13 12 11 10 8 7 7 6 5 4 3 3 3 2 1 1 1 1 2 2 3 3 3 3 3 3 4 5 5 5 5 4
16 17 18 20 20 21 22 22 21 21 21 21 22 21 20 18 16 14 13 12 11 9 8 7 6 5 4 3 2 2 2 2 1 1 1 1 2 2 3 3 3 3 3 3 4 5 5 5 5
15 15 16 18 19 20 21 21 21 22 22 22 23 22 20 19 17 16 14 13 13 12 10 9 8 6 4 4 2 2 2 2 1 2 1 1 1 2 3 3 3 2 2 3 4 4 4 5 5
13 12 14 18 19 19 20 20 21 23 23 23 23 22 20 20 19 17 16 14 13 12 11 11 10 8 6 4 3 2 2 2 2 1 1 1 2 2 2 2 3 3 3 4 4 5 5 5 5
11 11 13 16 18 18 18 19 21 23 23 23 22 21 20 20 19 18 17 15 14 13 12 11 10 9 8 6 4 3 3 2 2 2 2 2 2 2 2 3 3 4 4 5 5 4 5 5 5
9 9 12 13 16 18 19 20 21 21 22 22 22 21 21 19 19 19 18 16 15 14 13 13 11 10 9 7 5 4 3 3 2 2 2 2 3 2 2 3 4 4 4 4 4 4 4 5 5
6 7 10 12 15 18 19 20 20 20 21 21 22 21 20 19 19 19 19 18 16 15 14 13 12 11 10 9 6 5 4 4 3 3 3 3 2 2 3 4 4 4 4 4 4 3 4 4 4
4 6 7 10 13 16 17 18 18 19 20 21 21 21 20 20 20 20 20 19 17 16 15 14 12 11 11 10 8 7 6 5 4 4 4 3 2 3 3 3 3 4 3 3 3 3 4 4 4
6 4 5 7 10 13 15 15 16 17 19 20 20 20 20 21 21 21 20 19 18 17 16 14 13 12 12 11 10 8 6 6 5 4 3 3 3 3 3 3 3 3 3 3 4 4 4 4 4
5 4 3 6 9 11 12 14 14 16 18 18 19 20 20 20 21 21 20 19 18 17 16 14 13 12 12 11 10 9 7 6 5 4 4 3 3 3 2 2 3 3 3 4 4 4 4 4 4
4 2 1 4 7 9 11 13 13 14 16 18 19 19 19 20 20 20 20 19 18 17 16 15 13 12 11 10 10 9 7 5 4 3 3 2 2 2 2 2 2 2 3 4 4 5 4 4 4
6 3 1 3 5 8 9 10 11 13 14 16 18 18 19 19 20 20 19 18 18 17 16 15 13 12 11 10 10 9 7 5 4 3 2 2 2 2 2 2 2 3 3 4 4 5 5 4 4
6 3 1 3 5 7 8 9 10 12 12 14 16 17 18 18 19 19 18 18 17 17 15 14 13 11 10 10 10 9 7 6 5 3 2 2 2 2 3 3 3 3 3 4 4 5 5 5 5
7 4 2 2 4 7 8 8 10 10 11 13 14 16 17 17 18 18 18 17 16 16 15 14 13 12 11 10 9 9 8 6 5 4 2 2 2 3 3 3 3 3 3 4 4 5 5 5 5
10 7 5 4 5 7 8 8 9 9 10 11 12 14 16 16 17 17 17 16 16 15 14 13 13 12 11 10 10 9 8 7 6 4 3 2 2 2 2 2 2 3 3 4 4 5 5 6 7
13 10 9 8 8 8 9 9 9 10 10 11 11 12 14 15 16 16 16 15 15 15 14 14 13 11 10 10 10 10 8 6 6 5 4 3 2 1 1 2 2 3 3 3 4 5 6 7 7
16 13 12 12 12 11 11 11 9 10 9 10 10 11 13 14 14 15 15 14 14 14 14 14 12 11 10 10 10 10 8 6 5 5 4 3 2 1 0 2 2 3 3 3 4 5 6 7 7
17 15 14 14 14 13 13 12 10 9 10 9 9 11 12 12 13 14 14 13 12 12 13 13 12 11 10 9 9 9 8 7 6 5 4 4 3 2 2 2 3 3 4 4 5 6 7 7 7
19 19 17 15 15 15 13 13 12 10 10 9 9 11 11 12 12 12 13 12 11 11 12 12 12 11 11 9 9 8 7 7 5 5 4 3 4 3 3 3 3 4 5 5 5 6 7 8 9
21 20 18 17 16 14 14 15 12 11 10 10 10 10 10 11 11 11 11 10 10 10 10 11 11 11 10 9 8 8 7 6 5 5 5 4 4 4 5 4 4 5 5 6 6 7 8 9 9
20 21 20 18 16 14 13 14 13 12 10 10 10 10 11 10 10 10 9 9 9 9 9 10 10 10 10 10 9 8 7 6 6 6 5 5 5 5 6 6 6 6 7 7 8 9 9 10 10
20 20 20 20 18 17 15 15 13 11 11 10 11 11 11 11 11 10 9 9 9 9 9 10 10 10 10 10 9 8 8 7 7 6 6 6 6 6 6 7 7 7 7 8 8 9 10 10 10
21 19 21 22 21 20 18 15 14 13 11 11 12 12 11 11 11 10 10 10 9 9 9 9 9 10 10 9 8 8 8 8 7 7 7 7 7 8 8 7 8 8 8 9 9 10 10 10 10
22 22 22 23 24 22 20 17 14 14 13 13 13 13 12 11 11 12 12 11 11 10 9 9 9 10 10 9 9 8 8 8 8 8 9 8 8 8 8 8 8 8 9 10 10 10 10 11 11
24 24 24 24 24 24 23 21 18 17 15 15 14 14 14 14 14 13 12 12 12 11 11 11 9 9 9 9 9 9 8 9 9 9 9 9 9 8 9 9 9 9 10 11 12 12 11 11 11
Wind_Direction
60 53 48 45 44 42 43 45 43 42 42 41 37 38 41 41 44 44 47 55 59 64 69 73 78 86 87 90 96 92 108 132 130 129 149 162 161 151 159 158 156 155 152 153 157 156 152 147 148
62 54 48 44 41 40 43 44 45 44 45 44 39 37 40 41 44 46 49 54 60 64 67 72 76 80 83 84 86 85 110 131 135 140 160 181 171 159 157 158 152 152 154 154 158 157 154 148 151
63 53 46 43 40 39 42 44 42 41 42 43 40 38 39 43 44 46 50 55 59 61 63 68 75 77 80 85 84 75 87 119 139 145 174 200 185 172 163 163 158 160 161 159 157 157 159 160 160
63 53 46 42 40 37 40 43 41 38 39 40 39 38 38 42 43 43 47 52 55 56 58 61 67 71 79 83 86 82 75 90 126 151 177 191 182 175 173 175 168 168 170 172 164 159 160 163 162
63 54 45 40 39 38 40 42 39 36 36 39 40 39 39 42 43 42 44 48 50 52 53 56 62 66 76 82 93 95 89 89 110 157 184 187 189 177 175 182 183 181 178 178 170 162 164 163 162
62 56 45 37 39 41 43 43 40 35 35 38 40 40 40 44 45 44 44 48 49 49 49 50 60 66 65 73 86 99 97 112 152 179 175 180 185 177 178 187 182 185 190 188 180 170 167 163 158
63 55 45 36 35 38 42 41 39 38 35 37 39 40 40 44 47 45 44 47 49 49 48 45 51 59 59 71 93 105 103 116 141 169 173 176 186 187 189 186 185 187 189 190 184 174 165 159 151
62 52 45 38 34 36 39 39 40 41 35 36 39 38 39 44 48 46 43 42 46 48 48 48 48 50 58 72 96 119 114 116 137 148 163 168 176 169 177 184 182 179 188 187 181 171 159 149 146
61 53 46 41 37 37 38 38 40 39 35 35 37 37 38 41 44 46 46 45 46 49 49 47 48 53 60 70 78 89 115 128 136 141 148 154 170 173 179 179 174 174 167 167 165 164 159 158 157
55 55 45 39 37 39 40 39 38 37 34 34 36 37 37 38 40 45 47 47 46 48 49 49 50 54 57 61 67 82 100 123 130 143 161 173 170 179 185 165 164 166 163 162 163 170 171 171 171
58 50 43 37 38 42 42 40 38 37 35 35 36 36 36 37 38 41 45 46 47 47 46 46 48 52 53 56 62 73 79 92 124 138 144 157 159 164 165 157 159 164 161 159 162 166 176 176 174
66 59 47 37 39 37 34 36 35 35 35 36 36 36 36 37 38 40 43 45 47 48 48 48 49 51 52 53 59 67 71 82 107 127 130 132 143 153 158 157 163 166 161 160 163 164 170 168 169
79 55 48 39 34 31 29 31 29 32 33 34 35 35 35 35 37 39 41 42 45 47 48 48 50 52 52 51 50 60 71 86 98 111 120 131 139 135 148 161 161 167 164 159 163 161 166 169 173
103 65 44 36 29 31 28 27 27 29 31 32 32 32 33 33 34 34 37 39 40 43 45 48 49 51 51 51 50 54 70 91 100 112 120 126 140 141 142 147 162 172 172 170 170 173 176 175 183
130 97 42 22 19 22 26 22 26 28 28 29 28 29 31 33 33 33 34 36 36 37 40 42 46 47 48 47 48 49 63 82 93 106 113 115 126 151 152 154 158 178 187 181 181 182 185 190 201
145 120 9 357 360 10 12 14 21 24 27 28 26 27 28 31 32 31 32 33 33 33 34 36 40 43 46 45 46 48 55 65 82 101 122 131 129 138 148 146 154 179 198 197 194 197 205 208 213
149 130 280 300 331 352 357 10 13 16 18 20 22 25 26 28 30 29 29 31 31 31 31 31 33 37 42 42 42 45 51 53 65 90 125 158 164 155 162 174 185 200 207 209 209 217 221 222 226
165 166 176 293 305 328 343 356 358 2 9 15 18 23 25 25 26 27 25 26 28 29 29 28 29 34 37 38 36 36 41 47 53 61 68 129 167 162 170 183 190 201 209 216 218 224 232 238 241
180 178 179 277 302 305 321 335 343 351 3 12 14 19 22 21 21 22 21 21 24 26 26 27 27 30 33 33 34 36 42 46 49 47 56 115 155 169 170 180 190 199 210 222 228 232 233 241 250
189 200 214 233 268 286 299 308 329 342 357 2 6 12 14 16 16 17 17 18 21 21 22 25 25 27 30 32 31 32 39 43 49 52 60 92 123 150 172 193 199 214 228 237 237 236 244 252 258
203 212 217 230 253 265 285 294 311 326 340 347 353 3 6 9 11 13 13 13 16 19 20 22 23 25 27 27 26 24 28 31 44 50 61 69 89 134 178 208 228 232 239 246 245 246 251 257 262
211 212 226 238 244 250 268 286 296 308 325 336 342 351 358 360 3 6 8 8 12 16 19 20 21 23 24 25 24 23 25 28 36 44 49 45 30 12 240 229 235 238 252 263 259 256 259 263 266
214 214 222 234 241 244 255 268 278 289 310 329 333 342 346 350 354 357 1 2 6 12 15 17 19 20 22 23 22 20 23 27 26 30 28 23 8 345 304 278 266 261 265 270 264 261 263 266 269
217 219 222 231 240 244 254 265 272 278 300 318 327 333 336 338 344 346 352 355 360 6 10 13 16 17 18 19 20 19 20 23 22 18 11 8 5 359 335 303 287 283 279 273 270 268 270 270 269
221 223 226 229 233 243 254 262 271 277 292 308 313 318 324 331 333 337 344 349 354 1 6 9 11 12 12 13 15 16 16 16 15 6 357 351 348 352 343 330 301 293 289 278 274 275 275 275 274
223 227 229 229 231 240 252 260 269 274 283 291 297 306 313 320 322 326 335 340 345 352 358 1 4 7 8 8 9 11 9 5 3 359 348 342 343 340 340 337 325 302 291 285 280 278 274 275 274
222 228 231 232 234 239 247 255 264 267 271 276 286 297 305 310 315 319 324 328 332 341 348 353 358 360 1 3 4 4 4 1 351 347 349 349 343 338 333 330 325 315 305 295 289 286 281 278 276
221 225 229 233 235 239 246 253 259 265 264 270 281 291 297 303 312 315 319 322 322 329 338 346 351 353 355 356 0 1 0 358 352 348 344 342 338 337 331 326 325 322 314 302 296 292 285 284 282
220 222 227 232 235 240 247 251 255 259 262 268 275 283 286 294 300 307 310 312 312 314 319 325 334 342 347 349 350 349 348 349 344 340 340 344 342 344 345 336 327 321 320 318 309 301 293 288 288
220 224 228 232 234 239 247 251 255 263 263 265 269 278 282 286 294 298 300 302 302 304 310 312 321 334 340 343 345 345 344 343 343 338 340 340 339 338 338 333 328 323 323 321 318 307 298 295 294
Height
5918 5916 5915 5914 5913 5911 5909 5908 5906 5905 5903 5901 5900 5899 5898 5897 5896 5897 5893 5891 5890 5890 5889 5888 5888 5888 5889 5889 5889 5889 5890 5890 5890 5890 5891 5891 5891 5891 5891 5892 5892 5893 5893 5894 5894 5895 5895 5896 5896
5920 5919 5918 5916 5914 5912 5911 5910 5909 5907 5905 5903 5902 5900 5899 5897 5896 5895 5893 5892 5891 5891 5890 5890 5889 5889 5889 5889 5890 5890 5890 5891 5891 5891 5892 5892 5892 5892 5892 5893 5893 5893 5894 5894 5895 5895 5896 5896 5897
5923 5922 5921 5918 5916 5915 5914 5912 5910 5908 5907 5905 5904 5902 5901 5899 5897 5895 5894 5893 5892 5891 5891 5891 5890 5890 5890 5890 5890 5890 5891 5891 5891 5892 5892 5893 5893 5893 5893 5894 5894 5894 5895 5895 5896 5896 5896 5897 5897
5925 5924 5923 5921 5919 5917 5916 5914 5913 5911 5909 5908 5906 5904 5902 5900 5898 5896 5895 5894 5892 5892 5892 5891 5891 5891 5891 5891 5891 5891 5891 5892 5892 5892 5893 5893 5893 5894 5894 5894 5894 5895 5895 5896 5896 5896 5897 5897 5897
5928 5926 5925 5923 5922 5920 5919 5917 5916 5914 5912 5909 5908 5906 5904 5901 5898 5897 5896 5895 5894 5893 5893 5892 5891 5891 5891 5891 5891 5892 5892 5892 5892 5893 5893 5893 5894 5894 5894 5895 5895 5895 5895 5896 5896 5897 5897 5897 5897
5931 5928 5928 5926 5925 5924 5922 5920 5919 5917 5914 5912 5910 5907 5905 5903 5900 5898 5897 5896 5895 5894 5893 5893 5892 5892 5892 5892 5892 5892 5892 5893 5893 5893 5894 5894 5894 5895 5895 5895 5895 5896 5896 5896 5896 5897 5897 5898 5898
5933 5931 5930 5929 5928 5926 5925 5924 5922 5919 5917 5914 5911 5909 5907 5905 5902 5900 5898 5897 5896 5895 5894 5893 5893 5892 5892 5892 5892 5892 5893 5893 5893 5893 5894 5894 5895 5895 5895 5895 5896 5896 5896 5896 5896 5897 5898 5898 5898
5934 5934 5933 5932 5931 5929 5927 5926 5924 5922 5919 5916 5913 5911 5909 5907 5905 5902 5900 5898 5897 5896 5895 5894 5893 5893 5892 5892 5892 5892 5893 5893 5893 5894 5894 5894 5894 5894 5895 5895 5896 5896 5896 5896 5897 5897 5898 5898 5899
5936 5937 5936 5935 5934 5931 5930 5929 5926 5924 5921 5918 5915 5913 5911 5908 5906 5904 5902 5900 5898 5897 5896 5895 5894 5893 5892 5892 5892 5892 5893 5893 5894 5894 5894 5894 5895 5895 5895 5895 5896 5896 5896 5896 5897 5897 5898 5898 5899
5939 5939 5938 5937 5936 5934 5932 5931 5928 5926 5923 5921 5918 5916 5913 5910 5908 5906 5904 5902 5900 5898 5897 5896 5895 5894 5893 5893 5892 5892 5893 5893 5894 5894 5894 5894 5895 5895 5895 5895 5896 5896 5896 5897 5897 5898 5898 5898 5899
5940 5940 5939 5939 5938 5937 5935 5933 5931 5929 5927 5924 5921 5918 5915 5913 5910 5908 5906 5904 5901 5900 5898 5897 5896 5895 5894 5893 5893 5893 5893 5893 5893 5894 5894 5894 5895 5895 5895 5895 5896 5896 5897 5897 5897 5898 5898 5899 5899
5942 5942 5941 5940 5939 5939 5937 5935 5934 5932 5930 5927 5924 5921 5918 5916 5913 5910 5908 5906 5904 5902 5900 5898 5897 5896 5895 5894 5893 5893 5893 5893 5893 5893 5894 5894 5895 5895 5895 5895 5896 5897 5897 5897 5898 5898 5898 5899 5899
5943 5943 5942 5942 5941 5940 5939 5938 5937 5934 5932 5929 5926 5923 5921 5918 5915 5912 5910 5907 5906 5903 5902 5900 5899 5898 5897 5896 5894 5894 5893 5893 5893 5893 5894 5894 5895 5895 5895 5895 5896 5896 5897 5897 5898 5898 5899 5899 5900
5944 5943 5943 5942 5942 5941 5941 5940 5939 5936 5934 5931 5929 5926 5923 5919 5916 5913 5911 5909 5907 5905 5903 5902 5900 5899 5898 5897 5895 5895 5894 5894 5894 5894 5894 5894 5895 5895 5896 5896 5896 5896 5897 5897 5897 5898 5899 5899 5900
5944 5944 5944 5943 5943 5943 5942 5942 5940 5938 5936 5933 5931 5928 5925 5922 5919 5916 5913 5911 5909 5907 5905 5903 5902 5900 5899 5898 5897 5896 5895 5895 5895 5894 5894 5894 5895 5895 5896 5896 5896 5896 5896 5897 5897 5898 5898 5899 5900
5944 5945 5944 5945 5944 5944 5945 5943 5941 5939 5937 5935 5932 5930 5927 5924 5921 5918 5916 5913 5911 5909 5906 5905 5903 5901 5900 5899 5898 5897 5896 5895 5895 5895 5895 5895 5895 5895 5896 5896 5896 5896 5896 5897 5897 5898 5898 5899 5899
5944 5945 5945 5945 5944 5944 5944 5943 5942 5940 5938 5936 5934 5931 5929 5926 5923 5921 5918 5915 5913 5910 5908 5906 5904 5903 5902 5900 5899 5898 5897 5896 5895 5895 5894 5895 5895 5895 5896 5896 5896 5896 5896 5897 5897 5897 5898 5898 5898
5943 5943 5944 5944 5943 5943 5943 5943 5943 5941 5939 5937 5935 5933 5930 5928 5925 5923 5920 5917 5915 5912 5910 5908 5906 5904 5902 5901 5900 5899 5897 5896 5896 5895 5894 5894 5895 5895 5895 5895 5895 5896 5896 5896 5897 5897 5897 5897 5897
5941 5942 5942 5942 5942 5942 5942 5943 5942 5941 5939 5937 5936 5933 5931 5929 5927 5924 5921 5919 5916 5914 5912 5909 5907 5905 5903 5902 5901 5900 5898 5897 5896 5895 5894 5894 5894 5894 5895 5895 5895 5895 5895 5896 5896 5896 5896 5896 5896
5939 5940 5941 5942 5941 5941 5941 5941 5941 5940 5939 5937 5936 5934 5932 5930 5928 5925 5923 5920 5917 5915 5913 5910 5908 5906 5904 5903 5902 5900 5899 5898 5896 5895 5895 5894 5894 5894 5894 5894 5894 5894 5894 5894 5894 5895 5895 5895 5894
5937 5938 5939 5940 5940 5940 5940 5940 5939 5938 5938 5936 5935 5934 5932 5930 5928 5926 5924 5921 5918 5916 5914 5911 5909 5907 5905 5904 5902 5901 5899 5898 5897 5896 5895 5895 5894 5894 5894 5894 5894 5893 5893 5893 5893 5893 5893 5893 5893
5935 5936 5937 5937 5938 5938 5939 5938 5938 5937 5936 5935 5935 5934 5932 5930 5928 5926 5924 5922 5919 5917 5915 5912 5910 5908 5906 5904 5902 5901 5899 5898 5897 5896 5895 5895 5894 5894 5893 5893 5893 5892 5892 5892 5891 5891 5891 5891 5890
5932 5934 5934 5935 5935 5936 5937 5937 5937 5936 5935 5934 5934 5933 5931 5930 5928 5926 5925 5922 5920 5918 5915 5913 5911 5909 5907 5905 5903 5901 5899 5898 5897 5896 5895 5895 5894 5893 5892 5892 5892 5891 5891 5890 5890 5890 5889 5889 5888
5929 5931 5931 5932 5933 5934 5935 5934 5934 5934 5934 5933 5933 5932 5931 5930 5928 5926 5924 5922 5920 5918 5916 5914 5911 5909 5907 5905 5903 5901 5899 5898 5897 5896 5895 5894 5893 5892 5891 5891 5890 5890 5889 5889 5888 5888 5887 5887 5886
5925 5927 5929 5929 5930 5930 5931 5930 5931 5931 5932 5931 5931 5930 5929 5928 5927 5925 5924 5922 5920 5918 5916 5914 5912 5909 5907 5905 5903 5901 5899 5898 5896 5895 5894 5893 5892 5891 5890 5889 5889 5888 5887 5887 5886 5885 5885 5884 5884
5920 5923 5925 5926 5927 5927 5927 5927 5928 5928 5928 5928 5928 5928 5927 5927 5926 5924 5923 5921 5919 5917 5916 5914 5912 5909 5907 5905 5903 5902 5900 5898 5896 5895 5893 5892 5891 5890 5889 5888 5887 5886 5885 5884 5883 5883 5882 5881 5881
5916 5918 5920 5922 5922 5923 5923 5924 5924 5924 5925 5925 5925 5926 5926 5925 5924 5923 5922 5920 5918 5917 5915 5913 5911 5909 5907 5905 5903 5901 5899 5897 5896 5894 5893 5891 5890 5889 5887 5886 5885 5884 5883 5882 5881 5880 5879 5878 5877
5912 5914 5916 5917 5918 5918 5919 5920 5921 5921 5922 5922 5922 5923 5923 5922 5921 5921 5920 5918 5917 5915 5914 5912 5911 5909 5907 5904 5902 5901 5899 5897 5895 5893 5892 5890 5889 5887 5886 5884 5883 5882 5881 5880 5878 5877 5876 5875 5874
5907 5909 5910 5912 5913 5914 5915 5918 5918 5918 5918 5919 5919 5919 5920 5919 5919 5918 5917 5916 5915 5914 5912 5911 5909 5908 5906 5904 5902 5900 5898 5896 5894 5892 5891 5889 5887 5886 5884 5883 5882 5880 5879 5877 5876 5874 5873 5872 5871
5900 5903 5905 5907 5909 5910 5910 5914 5913 5914 5914 5914 5914 5915 5915 5916 5916 5915 5914 5914 5913 5911 5910 5908 5907 5906 5904 5902 5900 5898 5896 5895 5893 5891 5889 5887 5886 5884 5882 5881 5879 5878 5877 5875 5873 5871 5870 5868 5867